This is the latest recevied weather packets stored in our database for station/object M0UPS-13. If no packets are shown the sender has not sent any weather packets the latest 10 day(s).
| Time | Temp. | Humidity | Pressure | Rain* | Wind** | Luminosity | Snow |
|---|---|---|---|---|---|---|---|
| 1777927503 | 14.44° C | 76% | 1015 hPa | 0 mm | - | 0 W/m² | - |
| 1777927202 | 14.44° C | 76% | 1015 hPa | 0 mm | - | 0 W/m² | - |
| 1777926902 | 14.44° C | 76% | 1014.9 hPa | 0 mm | - | 0 W/m² | - |
| 1777926602 | 14.44° C | 76% | 1015.1 hPa | 0 mm | - | 0 W/m² | - |
| 1777926302 | 14.44° C | 76% | 1014.9 hPa | 0 mm | - | 0 W/m² | - |
| 1777926003 | 14.44° C | 76% | 1014.9 hPa | 0 mm | - | 0 W/m² | - |
| 1777925705 | 14.44° C | 76% | 1015 hPa | 0 mm | - | 0 W/m² | - |
| 1777925403 | 14.44° C | 75% | 1014.9 hPa | 0 mm | - | 0 W/m² | - |
| 1777925102 | 14.44° C | 75% | 1014.9 hPa | 0 mm | - | 0 W/m² | - |
| 1777924803 | 14.44° C | 75% | 1014.9 hPa | 0 mm | - | 0 W/m² | - |
| 1777924503 | 14.44° C | 76% | 1014.7 hPa | 0 mm | - | 0 W/m² | - |
| 1777924202 | 14.44° C | 76% | 1014.7 hPa | 0 mm | - | 0 W/m² | - |
| 1777923902 | 14.44° C | 76% | 1014.6 hPa | 0 mm | - | 0 W/m² | - |
| 1777923602 | 14.44° C | 75% | 1014.6 hPa | 0 mm | - | 0 W/m² | - |
| 1777923302 | 14.44° C | 75% | 1014.7 hPa | 0 mm | - | 1 W/m² | - |
| 1777923003 | 14.44° C | 75% | 1014.5 hPa | 0 mm | - | 1 W/m² | - |
| 1777922702 | 14.44° C | 75% | 1014.6 hPa | 0 mm | - | 2 W/m² | - |
| 1777922403 | 14.44° C | 75% | 1014.7 hPa | 0 mm | - | 2 W/m² | - |
| 1777922103 | 14.44° C | 75% | 1014.7 hPa | 0 mm | - | 3 W/m² | - |
| 1777921803 | 15° C | 75% | 1014.3 hPa | 0 mm | - | 6 W/m² | - |
| 1777921502 | 15° C | 75% | 1014.5 hPa | 0 mm | - | 8 W/m² | - |
| 1777921202 | 15° C | 75% | 1014.5 hPa | 0 mm | - | 10 W/m² | - |
| 1777920902 | 15° C | 75% | 1014.5 hPa | 0 mm | - | 13 W/m² | - |
| 1777920604 | 14.44° C | 75% | 1014.3 hPa | 0 mm | - | 18 W/m² | - |
| 1777920303 | 14.44° C | 75% | 1014.2 hPa | 0 mm | - | 24 W/m² | - |
* Rain latest hour (hover to see other rain measurements)
** Current wind speed in m/s (hover to see current wind gust speed)